TimeMST,TemperatureF,Dew PointF,Humidity,Sea Level PressureIn,VisibilityMPH,Wind Direction,Wind SpeedMPH,Gust SpeedMPH,PrecipitationIn,Events,Conditions,WindDirDegrees,DateUTC
12:15 AM,30.2,26.6,86,30.16,10.0,Calm,Calm,-,N/A,,Clear,0,2011-11-30 07:15:00
1:35 AM,28.4,24.8,86,30.12,10.0,East,4.6,-,N/A,,Clear,90,2011-11-30 08:35:00
1:55 AM,28.4,24.8,86,30.12,10.0,SE,4.6,-,N/A,,Clear,140,2011-11-30 08:55:00
2:15 AM,28.4,26.6,93,30.11,10.0,Calm,Calm,-,N/A,,Clear,0,2011-11-30 09:15:00
2:35 AM,28.4,28.4,100,30.10,10.0,Calm,Calm,-,N/A,,Clear,0,2011-11-30 09:35:00
2:55 AM,30.2,26.6,86,30.10,10.0,Calm,Calm,-,N/A,,Clear,0,2011-11-30 09:55:00
3:15 AM,28.4,26.6,93,30.09,10.0,Calm,Calm,-,N/A,,Clear,0,2011-11-30 10:15:00
3:35 AM,26.6,24.8,93,30.07,10.0,Calm,Calm,-,N/A,,Clear,0,2011-11-30 10:35:00
3:55 AM,30.2,28.4,93,30.06,10.0,ESE,6.9,-,N/A,,Clear,120,2011-11-30 10:55:00
4:35 AM,28.4,24.8,86,30.04,10.0,ESE,5.8,-,N/A,,Clear,120,2011-11-30 11:35:00
5:15 AM,30.2,24.8,80,30.02,10.0,SSE,4.6,-,N/A,,Clear,160,2011-11-30 12:15:00
5:35 AM,28.4,24.8,86,30.01,10.0,SSE,4.6,-,N/A,,Clear,160,2011-11-30 12:35:00
5:55 AM,28.4,26.6,93,30.00,10.0,Calm,Calm,-,N/A,,Clear,0,2011-11-30 12:55:00
6:15 AM,28.4,24.8,86,30.00,10.0,Calm,Calm,-,N/A,,Clear,0,2011-11-30 13:15:00
6:35 AM,28.4,26.6,93,30.00,10.0,North,3.5,-,N/A,,Clear,10,2011-11-30 13:35:00
6:50 AM,28.4,26.6,93,30.00,15.0,Calm,Calm,-,N/A,,Mostly Cloudy,0,2011-11-30 13:50:00
7:50 AM,33.8,26.6,75,29.98,15.0,ESE,9.2,-,N/A,,Mostly Cloudy,110,2011-11-30 14:50:00
8:50 AM,37.4,26.6,65,29.97,15.0,Variable,5.8,-,N/A,,Mostly Cloudy,0,2011-11-30 15:50:00
9:50 AM,39.2,28.4,65,29.97,15.0,WNW,9.2,-,N/A,,Mostly Cloudy,300,2011-11-30 16:50:00
11:59 AM,44.6,32.0,61,29.95,10.0,WNW,15.0,-,N/A,,Scattered Clouds,300,2011-11-30 18:59:00
12:47 PM,46.4,26.6,46,29.94,10.0,NW,25.3,31.1,N/A,,Scattered Clouds,320,2011-11-30 19:47:00
1:50 PM,44.6,28.4,53,29.93,10.0,WNW,17.3,25.3,N/A,,Scattered Clouds,300,2011-11-30 20:50:00
2:50 PM,39.2,30.2,70,29.92,10.0,WNW,17.3,23.0,N/A,,Mostly Cloudy,300,2011-11-30 21:50:00
3:47 PM,39.2,30.2,70,29.93,15.0,NW,20.7,28.8,N/A,,Mostly Cloudy,310,2011-11-30 22:47:00
5:47 PM,39.2,28.4,65,29.96,15.0,NW,23.0,28.8,N/A,,Mostly Cloudy,310,2011-12-01 00:47:00
7:50 PM,37.4,28.4,70,30.00,15.0,NW,17.3,-,N/A,,Overcast,310,2011-12-01 02:50:00
8:55 PM,37.4,28.4,70,29.99,10.0,NW,16.1,-,N/A,,Clear,320,2011-12-01 03:55:00
9:15 PM,37.4,28.4,70,29.99,10.0,NNW,11.5,17.3,N/A,,Clear,340,2011-12-01 04:15:00
9:35 PM,35.6,28.4,75,29.99,10.0,NW,18.4,24.2,N/A,,Partly Cloudy,320,2011-12-01 04:35:00
9:55 PM,35.6,28.4,75,29.99,10.0,NW,18.4,24.2,N/A,,Clear,320,2011-12-01 04:55:00
10:15 PM,35.6,28.4,75,29.99,10.0,NNW,15.0,20.7,N/A,,Clear,340,2011-12-01 05:15:00
10:35 PM,35.6,28.4,75,30.00,10.0,North,9.2,-,N/A,,Clear,350,2011-12-01 05:35:00
10:55 PM,35.6,28.4,75,30.00,10.0,North,6.9,-,N/A,,Clear,360,2011-12-01 05:55:00
11:15 PM,35.6,26.6,70,30.00,10.0,NNW,12.7,17.3,N/A,,Clear,330,2011-12-01 06:15:00
11:35 PM,35.6,26.6,70,29.99,10.0,NNW,16.1,20.7,N/A,,Clear,330,2011-12-01 06:35:00